Wind_Speed
10 11 11 11 12 12 12 12 12 13 13 14 15 16 16 17 17 16 17 17 17 16 16 16 16 16 16 15 15 16 16 16 17 17 18 18 18 19
11 12 13 13 13 13 13 14 14 14 14 15 16 17 17 18 18 18 18 18 17 17 17 17 17 17 17 17 16 16 17 18 18 18 18 19 20 20
13 13 14 14 14 14 15 15 15 16 16 16 17 18 19 19 20 20 20 20 20 19 19 19 19 19 19 18 18 18 18 19 19 20 20 20 20 21
14 14 15 16 16 16 16 17 17 18 18 18 19 20 21 21 22 21 21 22 22 21 21 21 21 21 21 20 20 20 20 20 21 21 21 21 22 22
16 16 17 17 17 18 18 19 19 20 20 20 21 21 22 23 23 23 23 23 23 24 23 23 23 22 22 22 22 22 22 23 23 23 23 24 24 24
17 18 19 19 19 20 20 21 21 22 22 23 23 24 24 24 24 25 25 25 25 25 25 24 24 23 23 23 23 24 24 25 25 25 25 25 26 25
19 20 21 21 21 22 22 23 24 24 24 25 25 26 26 26 27 27 26 26 26 25 25 25 25 25 24 25 25 25 26 26 26 26 27 26 26 26
22 22 23 23 23 24 25 25 26 26 27 28 28 28 28 28 28 28 28 28 27 27 26 26 27 27 27 27 26 27 27 27 27 27 27 27 27 26
24 24 25 26 26 27 27 28 28 29 29 29 29 29 29 29 30 29 29 29 29 28 28 28 28 29 29 28 28 28 29 29 28 28 28 28 28 28
26 27 28 29 30 30 31 30 30 31 31 31 31 31 31 31 31 30 30 30 30 29 29 29 29 30 30 30 30 30 30 29 29 30 30 29 29 29
29 30 31 31 32 33 33 33 33 33 33 33 32 32 32 33 33 32 32 31 31 31 31 31 31 30 30 30 30 30 30 30 30 30 30 30 30 30
30 30 31 32 33 34 34 35 35 35 35 35 34 34 34 34 34 34 34 33 32 32 33 33 33 32 31 30 31 31 30 31 31 31 31 31 31 31
32 32 32 33 33 34 34 35 35 35 35 35 34 35 35 36 35 35 35 35 34 34 34 34 34 33 32 31 31 31 32 32 32 32 32 32 32 32
32 33 33 34 34 34 34 34 34 35 35 35 35 35 36 37 36 37 37 37 37 36 35 35 35 34 34 33 32 31 31 32 32 32 32 32 32 32
34 34 34 35 35 36 35 35 35 36 36 37 37 37 37 38 38 39 39 39 39 38 37 37 36 35 34 34 33 32 32 32 32 32 32 31 31 31
35 35 36 36 36 37 37 37 37 37 37 38 38 39 39 40 40 40 41 41 41 40 39 38 37 36 36 35 34 33 33 32 32 33 33 31 31 31
36 35 35 36 36 37 37 38 39 38 38 39 40 41 42 42 42 42 42 42 41 40 39 39 38 38 37 36 35 35 34 34 33 33 33 32 32 31
37 37 37 38 38 38 38 39 39 39 40 41 42 43 43 43 43 43 43 43 42 40 39 39 38 38 38 37 37 36 35 34 34 33 33 33 32 31
39 39 39 39 40 40 39 39 40 41 42 43 43 43 44 44 44 43 43 43 42 40 39 39 38 38 38 37 37 36 35 34 34 33 34 33 31 31
40 40 41 41 41 41 41 41 42 43 43 44 43 43 43 44 43 43 42 42 41 40 39 38 38 38 37 37 35 35 35 34 33 33 32 32 31 31
41 41 41 41 41 41 42 42 42 43 43 43 43 43 43 43 43 42 41 40 40 40 39 38 38 37 36 35 34 34 34 34 34 32 30 30 31 31
42 41 40 40 41 42 42 43 42 42 42 41 42 42 42 42 42 41 40 39 39 38 38 38 37 37 36 35 34 34 34 34 33 32 31 31 31 31
41 40 40 41 42 43 43 43 43 42 42 42 41 41 41 40 40 39 38 38 37 37 38 38 37 36 36 35 34 34 34 34 33 33 32 32 32 31
Wind_Direction
316 319 321 322 322 321 319 319 319 321 324 324 323 325 324 324 323 320 317 314 312 309 307 307 305 302 301 299 296 291 289 287 284 283 278 275 275 273
315 316 316 316 316 315 315 314 314 316 319 320 319 320 321 322 323 321 319 317 315 311 307 304 303 303 301 298 296 293 291 290 288 284 281 279 277 276
315 315 313 313 312 312 310 310 311 313 315 316 316 317 318 318 318 317 317 316 314 312 309 306 303 302 300 296 293 292 291 290 289 284 282 281 278 277
308 311 312 311 309 309 309 308 308 309 310 311 312 313 313 314 314 315 313 313 312 310 308 305 302 300 297 294 291 290 290 289 288 287 285 283 282 279
303 305 306 307 307 306 305 304 304 306 308 309 309 309 310 311 311 311 310 309 309 307 305 303 301 298 296 293 291 289 287 288 287 286 285 283 282 282
300 301 303 303 304 303 303 302 302 304 306 307 308 308 308 308 308 307 308 307 306 305 304 302 300 299 296 294 291 289 287 287 287 285 285 284 284 281
297 298 299 300 301 301 301 300 300 301 303 305 306 306 306 306 306 305 305 305 304 303 303 302 300 299 297 294 291 289 288 287 287 286 286 285 285 282
295 296 297 298 298 300 300 299 298 299 301 303 304 305 305 304 304 303 303 303 303 302 301 300 299 298 296 294 291 289 289 288 287 286 285 284 285 284
294 295 295 296 297 297 297 298 298 298 299 301 302 302 303 303 302 301 301 302 303 302 299 298 297 296 296 293 291 288 288 288 286 285 284 283 283 283
294 294 295 296 297 296 296 296 297 296 297 298 300 300 301 302 302 301 300 300 300 300 299 298 297 296 294 293 290 288 287 286 285 285 284 282 282 282
293 293 293 293 294 294 295 295 295 296 296 297 299 301 301 300 300 299 300 299 298 298 299 298 297 296 294 293 291 289 287 286 284 284 282 280 281 281
294 295 295 294 293 294 295 295 294 295 295 296 297 298 300 300 299 300 299 298 297 296 297 297 297 295 294 294 292 290 288 287 285 284 282 279 280 280
295 296 297 296 294 294 294 295 295 294 294 295 296 296 297 298 299 300 299 298 297 296 296 295 296 295 293 293 292 290 288 288 287 285 284 281 280 279
297 297 297 296 296 296 296 297 297 295 294 294 294 295 296 297 297 297 298 298 298 297 296 295 295 295 293 292 291 289 288 287 287 286 284 281 278 277
296 296 296 296 295 296 295 296 296 296 295 295 294 294 295 295 295 296 296 296 296 296 295 295 295 295 294 292 290 288 287 286 285 286 286 281 278 276
296 295 295 296 296 296 295 294 295 295 295 294 294 294 294 295 295 295 295 294 294 295 294 294 293 294 294 293 291 289 287 285 284 284 284 281 280 278
295 294 294 295 296 296 296 296 296 296 294 294 294 293 293 294 295 295 294 294 294 294 293 292 292 291 291 291 289 287 286 285 284 285 283 282 281 279
293 293 294 294 294 295 296 295 295 295 296 295 294 293 293 294 294 294 294 294 294 292 291 290 290 289 288 288 287 287 286 284 283 282 282 282 281 279
292 293 293 294 294 295 294 294 295 295 296 296 295 294 294 294 295 294 293 293 293 293 291 290 290 288 286 285 285 285 284 283 282 281 280 279 279 278
291 292 293 294 295 294 293 294 295 296 297 296 295 295 295 295 295 294 293 292 291 291 290 289 289 288 286 284 284 284 282 281 281 280 279 278 278 278
291 292 292 293 293 293 294 294 295 295 296 296 296 295 295 295 295 295 293 292 291 290 290 289 289 288 287 284 284 284 282 280 280 279 277 277 277 277
291 291 291 292 293 293 294 295 295 296 295 295 296 295 294 294 295 295 293 292 291 290 289 288 287 287 286 284 284 283 282 280 278 278 276 276 276 276
292 292 292 292 292 293 294 294 295 296 296 295 296 295 294 294 294 294 294 293 292 290 288 288 288 286 286 286 284 282 282 279 277 276 276 275 275 275
Height
5885 5884 5882 5880 5879 5877 5875 5874 5872 5870 5869 5866 5864 5862 5859 5857 5855 5853 5851 5848 5846 5844 5842 5840 5838 5837 5835 5834 5832 5831 5830 5829 5828 5827 5826 5826 5825 5825
5883 5882 5880 5878 5876 5875 5873 5871 5869 5868 5866 5864 5861 5859 5857 5854 5852 5849 5847 5845 5842 5840 5838 5836 5834 5832 5831 5829 5828 5827 5825 5824 5823 5822 5821 5821 5820 5819
5881 5879 5878 5876 5874 5872 5870 5868 5866 5864 5863 5861 5858 5856 5853 5851 5848 5846 5843 5840 5838 5836 5834 5832 5830 5828 5826 5824 5823 5822 5820 5819 5818 5817 5816 5815 5814 5814
5879 5877 5875 5873 5871 5869 5867 5865 5863 5861 5859 5857 5854 5852 5849 5847 5844 5841 5839 5836 5833 5831 5828 5826 5824 5822 5820 5819 5817 5816 5815 5814 5812 5811 5810 5809 5808 5807
5875 5873 5871 5869 5867 5865 5863 5861 5859 5857 5855 5852 5850 5847 5845 5842 5839 5837 5834 5831 5828 5825 5823 5821 5818 5816 5814 5813 5811 5810 5809 5807 5806 5805 5804 5803 5801 5800
5871 5869 5867 5865 5863 5861 5859 5856 5854 5852 5850 5847 5845 5842 5840 5837 5834 5831 5828 5826 5823 5820 5817 5815 5812 5810 5808 5806 5805 5803 5802 5801 5799 5798 5797 5796 5794 5793
5867 5865 5863 5861 5859 5856 5854 5852 5849 5847 5844 5842 5839 5837 5834 5831 5828 5825 5822 5820 5817 5814 5811 5809 5806 5804 5801 5799 5798 5796 5795 5793 5792 5791 5790 5788 5787 5786
5862 5860 5857 5855 5853 5851 5848 5846 5844 5841 5838 5835 5833 5830 5828 5825 5822 5819 5816 5813 5810 5808 5805 5802 5799 5797 5794 5792 5790 5788 5787 5785 5784 5783 5781 5780 5779 5778
5856 5854 5852 5849 5847 5844 5842 5839 5837 5834 5832 5829 5826 5823 5820 5818 5815 5812 5808 5805 5803 5800 5797 5795 5792 5789 5787 5784 5782 5780 5778 5777 5775 5774 5773 5772 5771 5770
5850 5847 5845 5842 5840 5837 5835 5832 5829 5826 5824 5821 5818 5816 5813 5810 5807 5804 5801 5798 5795 5792 5789 5787 5785 5782 5779 5776 5774 5772 5770 5768 5767 5766 5764 5763 5762 5761
5843 5840 5838 5835 5832 5829 5827 5824 5821 5818 5815 5813 5810 5807 5804 5801 5798 5795 5792 5789 5787 5784 5781 5779 5776 5773 5770 5768 5765 5763 5761 5759 5758 5756 5755 5754 5753 5752
5835 5832 5829 5826 5824 5821 5818 5815 5813 5810 5807 5804 5801 5799 5796 5793 5789 5786 5783 5780 5778 5776 5773 5770 5767 5764 5762 5759 5756 5754 5752 5750 5748 5746 5745 5744 5743 5742
5827 5824 5822 5818 5815 5812 5809 5806 5803 5801 5798 5795 5792 5790 5787 5784 5780 5777 5774 5771 5768 5766 5764 5760 5757 5754 5752 5750 5748 5745 5743 5741 5739 5737 5735 5734 5733 5732
5818 5816 5813 5810 5806 5803 5800 5798 5794 5791 5788 5785 5783 5780 5778 5775 5771 5768 5764 5761 5758 5756 5753 5750 5747 5745 5742 5740 5738 5736 5734 5731 5729 5727 5725 5724 5723 5722
5809 5807 5804 5800 5797 5794 5791 5788 5784 5781 5778 5775 5773 5770 5767 5764 5761 5758 5754 5751 5748 5745 5742 5739 5737 5734 5732 5730 5728 5726 5724 5722 5720 5718 5716 5714 5713 5712
5799 5797 5794 5791 5787 5784 5781 5778 5774 5771 5768 5765 5762 5759 5756 5753 5750 5746 5743 5740 5737 5734 5731 5728 5726 5723 5721 5719 5717 5716 5714 5712 5710 5708 5706 5704 5703 5702
5789 5786 5784 5781 5777 5774 5771 5767 5764 5760 5757 5754 5750 5747 5744 5741 5738 5734 5731 5727 5725 5723 5720 5717 5714 5712 5710 5708 5706 5705 5703 5702 5700 5698 5696 5695 5694 5693
5778 5776 5773 5770 5767 5763 5760 5756 5753 5749 5746 5742 5738 5735 5732 5728 5725 5722 5718 5715 5712 5710 5708 5706 5703 5701 5698 5696 5695 5693 5692 5690 5689 5688 5686 5685 5684 5683
5767 5764 5762 5759 5755 5752 5749 5745 5742 5738 5734 5730 5726 5722 5718 5715 5712 5708 5705 5703 5700 5698 5695 5693 5691 5689 5686 5685 5684 5681 5680 5679 5678 5677 5676 5675 5674 5674
5755 5753 5750 5747 5744 5741 5737 5733 5730 5726 5721 5717 5713 5709 5705 5701 5697 5695 5692 5690 5687 5685 5683 5681 5679 5676 5674 5673 5672 5670 5669 5668 5667 5666 5665 5664 5664 5663
5743 5740 5738 5735 5732 5728 5725 5721 5717 5713 5709 5704 5700 5697 5692 5688 5685 5682 5679 5677 5675 5673 5671 5669 5666 5664 5662 5661 5660 5659 5657 5656 5656 5655 5655 5654 5654 5653
5731 5728 5725 5722 5719 5716 5712 5709 5705 5700 5696 5692 5688 5684 5680 5676 5673 5670 5667 5665 5663 5661 5659 5657 5654 5652 5650 5649 5648 5647 5646 5645 5644 5643 5643 5644 5643 5643
5718 5715 5712 5710 5707 5703 5700 5696 5692 5688 5684 5680 5676 5672 5668 5665 5661 5658 5655 5653 5651 5649 5647 5645 5643 5641 5639 5637 5636 5635 5634 5633 5632 5632 5632 5632 5633 5633